Valentine, NE

1:29 AM CDT on October 19, 2017 (GMT -0500)
Miller Field

Weather History for KVTN - May, 2013

Change the Weather History Date:

Thursday, May 9, 2013

  Actual Average Record
Temperature  
Mean Temperature 58 °F 55 °F  
Max Temperature 69 °F 69 °F 97 °F (1962)
Min Temperature 47 °F 42 °F 25 °F (1997)
Degree Days  
Heating Degree Days 7 10  
Month to date heating degree days 151 105  
Since 1 July heating degree days 6793 6788  
Cooling Degree Days 0 1  
Month to date cooling degree days 0 6  
Year to date cooling degree days 0 10  
Growing Degree Days 8 (Base 50)    
Moisture  
Dew Point 45 °F    
Average Humidity 66    
Maximum Humidity 93    
Minimum Humidity 39    
Precipitation  
Precipitation 0.00 in 0.09 in 1.08 in (2015)
Month to date precipitation 0.56 0.83  
Year to date precipitation 5.22 4.86  
Snow  
Snow 0.00 in 0.00 in 0.70 in (1979)
Month to date snowfall 2.0 0.1  
Since 1 July snowfall 54.0 33.3  
Snow Depth 0.00 in    
Sea Level Pressure  
Sea Level Pressure 30.08 in    
Wind  
Wind Speed 11 mph (North)    
Max Wind Speed 21 mph    
Max Gust Speed 32 mph    
T = Trace of Precipitation, MM = Missing Value Source: NWS Daily Summary

Daily Weather History Graph

Daily Weather History Graph

Search for Another Location

Airport or City:

Trip Planner

Search our weather history database for the weather conditions in past years. The results will help you decide how hot, cold, wet, or windy it might be!

Date:

Astronomy

May. 09, 2013 Rise Set
Actual Time 6:25 AM CDT 8:52 PM CDT
Civil Twilight 5:53 AM CDT 9:24 PM CDT
Nautical Twilight 5:14 AM CDT 10:04 PM CDT
Astronomical Twilight 4:29 AM CDT 10:48 PM CDT
Moon 6:12 AM CDT (5/9) 8:48 PM CDT (5/9)
Length of Visible Light 15h 30m
Length of Day
14h 26m
Waning Crescent, 0% of the Moon is Illuminated
May 9
Waning Crescent
May 9
New
May 17
First Quarter
May 24
Full
May 31
Last Quarter

Hourly Weather History & Observations

Time (CDT) Temp. Dew Point Humidity Pressure Visibility Wind Dir Wind Speed Gust Speed Precip Events Conditions
12:52 AM 53.1 °F 46.0 °F 77% 30.01 in - North 6.9 mph - N/A   Clear
1:52 AM 52.0 °F 46.0 °F 80% 30.00 in - North 8.1 mph - N/A   Clear
2:52 AM 52.0 °F 46.9 °F 83% 30.03 in - NW 3.5 mph - N/A   Clear
3:32 AM 48.2 °F 46.4 °F 93% 30.07 in - West 5.8 mph - N/A   Mostly Cloudy
3:43 AM 48.2 °F 46.4 °F 93% 30.06 in - NW 9.2 mph - N/A   Overcast
3:52 AM 48.9 °F 46.0 °F 90% 30.04 in - NNW 8.1 mph - N/A   Overcast
4:39 AM 51.8 °F 46.4 °F 82% 30.06 in - NNW 10.4 mph - N/A   Overcast
4:52 AM 51.1 °F 48.0 °F 89% 30.04 in - NNW 11.5 mph - N/A   Overcast
5:13 AM 51.8 °F 48.2 °F 88% 30.06 in - NNW 12.7 mph - N/A   Overcast
5:52 AM 51.1 °F 48.9 °F 92% 30.04 in - North 12.7 mph - N/A   Overcast
6:52 AM 51.1 °F 48.9 °F 92% 30.06 in - North 13.8 mph - N/A   Overcast
7:52 AM 50.0 °F 46.9 °F 89% 30.08 in - North 15.0 mph - N/A   Overcast
8:16 AM 50.0 °F 46.4 °F 87% 30.10 in - NNE 12.7 mph 19.6 mph N/A   Overcast
8:52 AM 51.1 °F 45.0 °F 80% 30.11 in - North 12.7 mph - N/A   Mostly Cloudy
9:03 AM 51.8 °F 44.6 °F 76% 30.12 in - North 8.1 mph - N/A   Scattered Clouds
9:52 AM 53.1 °F 45.0 °F 74% 30.13 in - NNW 15.0 mph - N/A   Overcast
10:20 AM 53.6 °F 44.6 °F 72% 30.13 in - NNW 11.5 mph - N/A   Overcast
10:52 AM 55.0 °F 45.0 °F 69% 30.12 in - NNW 11.5 mph - N/A   Overcast
11:20 AM 57.2 °F 46.4 °F 67% 30.12 in - North 16.1 mph - N/A   Scattered Clouds
11:52 AM 57.0 °F 46.9 °F 69% 30.13 in - NNW 15.0 mph - N/A   Scattered Clouds
12:04 PM 57.2 °F 46.4 °F 67% 30.13 in - North 11.5 mph - N/A   Mostly Cloudy
12:39 PM 62.6 °F 44.6 °F 52% 30.12 in - North 13.8 mph 23.0 mph N/A   Scattered Clouds
12:52 PM 64.4 °F 44.6 °F 49% 30.11 in - North 13.8 mph 27.6 mph N/A   Scattered Clouds
1:52 PM 64.9 °F 44.1 °F 47% 30.10 in - NNE 15.0 mph 25.3 mph N/A   Mostly Cloudy
2:52 PM 66.2 °F 42.8 °F 43% 30.11 in - NNE 16.1 mph 23.0 mph N/A   Mostly Cloudy
3:52 PM 66.0 °F 44.1 °F 45% 30.09 in - NNE 12.7 mph 23.0 mph N/A   Scattered Clouds
4:52 PM 68.0 °F 42.1 °F 39% 30.07 in - NE 13.8 mph - N/A   Partly Cloudy
5:52 PM 68.0 °F 42.1 °F 39% 30.06 in - NNE 13.8 mph - N/A   Scattered Clouds
6:52 PM 66.2 °F 42.8 °F 43% 30.08 in - NNE 10.4 mph - N/A   Partly Cloudy
7:52 PM 64.9 °F 42.1 °F 43% 30.07 in - NE 9.2 mph - N/A   Clear
8:52 PM 60.8 °F 42.8 °F 52% 30.10 in - NNE 5.8 mph - N/A   Scattered Clouds
9:52 PM 59.0 °F 42.1 °F 53% 30.11 in - NNE 4.6 mph - N/A   Overcast
10:52 PM 57.9 °F 41.0 °F 53% 30.12 in - NE 4.6 mph - N/A   Overcast
11:52 PM 55.4 °F 37.4 °F 51% 30.13 in - NNE 6.9 mph - N/A   Overcast